Location: Ahausen
(50.4985°N, 8.2722°E)
Time: 02:03:10
(UTC+00:00)

ATLAS 2AS CENTAUR R/B - Pass Details

Date: 18 September 2020
Orbit: 939 x 1273 km, 63.7° (Epoch: 19 October)

Event Time Altitude Azimuth Distance (km) Brightness Sun altitude
Rises 19:13:45 0° 171° (S) 4,188 5.5 -16.3°
Enters shadow 19:16:57 - 159° (SSE) 3,291 4.8 -16.8°
Exits shadow 19:24:45 22° 91° (E) 2,452 4.0 -17.9°
Drops below altitude 10° 19:29:02 10° 60° (ENE) 3,252 4.9 -18.5°
Sets 19:32:23 0° 47° (NE) 4,198 5.6 -19.0°
